When you browse on this site, cookies collect data to enhance your experience and personalize the content and advertising you see.
Visit our Privacy Policy to learn more. By continuing to use the site, you agree to this use of cookies and data.
  • In Portugal
  • List of Countries
  • For 7 days
  • Water Temperature
  • Weather Map
  • Weather Widgets
  • user-avatar
    Login

    Hourly Weather Lankaran

    Today, 22 September, Sunday

    Time Temperature Precipitation Wind Pressure Humidity
    00:00 +8°C° 0.5 mm 6 mps 631 mmHg 92%
    01:00 +8°C° 0.5 mm 5 mps 632 mmHg 92%
    02:00 +8°C° 0.5 mm 5 mps 632 mmHg 92%
    03:00 +7°C° 0 mm 5 mps 632 mmHg 92%
    04:00 +7°C° 0.3 mm 4 mps 633 mmHg 92%
    05:00 +7°C° 0.3 mm 4 mps 634 mmHg 92%
    06:00 +6°C° 0.3 mm 4 mps 635 mmHg 92%
    07:00 +7°C° 0.1 mm 3 mps 635 mmHg 87%
    08:00 +7°C° 0.1 mm 3 mps 635 mmHg 82%
    09:00 +5°C° 0.1 mm 3 mps 636 mmHg 78%
    10:00 +7°C° 0 mm 3 mps 636 mmHg 72%
    11:00 +8°C° 0 mm 3 mps 637 mmHg 66%
    12:00 +9°C° 0 mm 3 mps 637 mmHg 60%
    13:00 +9°C° 0 mm 3 mps 637 mmHg 60%
    14:00 +10°C° 0 mm 3 mps 637 mmHg 61%
    15:00 +10°C° 0 mm 4 mps 637 mmHg 62%
    16:00 +9°C° 0 mm 3 mps 636 mmHg 69%
    17:00 +8°C° 0 mm 3 mps 636 mmHg 75%
    18:00 +7°C° 0 mm 2 mps 635 mmHg 82%
    19:00 +7°C° 0 mm 2 mps 635 mmHg 84%
    20:00 +8°C° 0 mm 1 mps 636 mmHg 85%
    21:00 +8°C° 0 mm 1 mps 636 mmHg 87%
    22:00 +8°C° 0 mm 1 mps 636 mmHg 86%
    23:00 +8°C° 0 mm 1 mps 636 mmHg 86%

    Tomorrow, 23 September, Monday

    Time Temperature Precipitation Wind Pressure Humidity
    00:00 +9°C° 0 mm 1 mps 635 mmHg 85%
    01:00 +8°C° 0 mm 0 mps 635 mmHg 85%
    02:00 +7°C° 0 mm 0 mps 635 mmHg 84%
    03:00 +7°C° 0 mm 0 mps 635 mmHg 84%
    04:00 +7°C° 0 mm 0 mps 635 mmHg 84%
    05:00 +7°C° 0 mm 0 mps 635 mmHg 84%
    06:00 +7°C° 0 mm 0 mps 635 mmHg 84%
    07:00 +10°C° 0 mm 1 mps 635 mmHg 79%
    08:00 +11°C° 0 mm 1 mps 635 mmHg 74%
    09:00 +13°C° 0 mm 2 mps 636 mmHg 69%
    10:00 +13°C° 0 mm 2 mps 636 mmHg 67%
    11:00 +14°C° 0 mm 2 mps 636 mmHg 65%
    12:00 +14°C° 0 mm 3 mps 635 mmHg 62%
    13:00 +14°C° 0 mm 3 mps 635 mmHg 63%
    14:00 +16°C° 0 mm 3 mps 634 mmHg 63%
    15:00 +16°C° 0 mm 2 mps 634 mmHg 64%
    16:00 +14°C° 0 mm 2 mps 633 mmHg 71%
    17:00 +13°C° 0 mm 2 mps 633 mmHg 79%
    18:00 +11°C° 0 mm 1 mps 632 mmHg 86%
    19:00 +11°C° 0 mm 1 mps 633 mmHg 87%
    20:00 +11°C° 0 mm 1 mps 633 mmHg 88%
    21:00 +10°C° 0 mm 1 mps 633 mmHg 89%
    22:00 +9°C° 0 mm 0 mps 633 mmHg 89%
    23:00 +9°C° 0 mm 0 mps 633 mmHg 89%

    Day after tomorrow, 24 September, Tuesday

    Time Temperature Precipitation Wind Pressure Humidity
    00:00 +9°C° 0 mm 0 mps 633 mmHg 89%
    01:00 +9°C° 0 mm 0 mps 633 mmHg 89%
    02:00 +8°C° 0 mm 0 mps 633 mmHg 90%
    03:00 +8°C° 0 mm 0 mps 633 mmHg 91%
    04:00 +8°C° 0 mm 0 mps 633 mmHg 91%
    05:00 +9°C° 0 mm 0 mps 633 mmHg 91%
    06:00 +9°C° 0 mm 0 mps 633 mmHg 92%
    07:00 +11°C° 0 mm 1 mps 634 mmHg 87%
    08:00 +12°C° 0 mm 1 mps 635 mmHg 82%
    09:00 +13°C° 0 mm 2 mps 635 mmHg 77%
    10:00 +14°C° 0 mm 2 mps 635 mmHg 73%
    11:00 +15°C° 0 mm 2 mps 635 mmHg 69%
    12:00 +16°C° 0 mm 2 mps 635 mmHg 65%
    13:00 +16°C° 0 mm 2 mps 635 mmHg 65%
    14:00 +16°C° 0 mm 2 mps 634 mmHg 65%
    15:00 +16°C° 0 mm 2 mps 634 mmHg 64%
    16:00 +15°C° 0 mm 2 mps 634 mmHg 71%
    17:00 +13°C° 0 mm 2 mps 633 mmHg 78%
    18:00 +12°C° 0 mm 1 mps 633 mmHg 85%
    19:00 +12°C° 0 mm 1 mps 633 mmHg 85%
    20:00 +11°C° 0 mm 1 mps 633 mmHg 86%
    21:00 +11°C° 0 mm 1 mps 633 mmHg 86%
    22:00 +10°C° 0 mm 0 mps 633 mmHg 85%
    23:00 +9°C° 0 mm 0 mps 633 mmHg 84%

    25 September, Wednesday

    Time Temperature Precipitation Wind Pressure Humidity
    00:00 +9°C° 0 mm 0 mps 632 mmHg 83%
    01:00 +9°C° 0 mm 0 mps 632 mmHg 83%
    02:00 +9°C° 0 mm 0 mps 632 mmHg 83%
    03:00 +9°C° 0 mm 0 mps 632 mmHg 82%
    04:00 +9°C° 0 mm 0 mps 632 mmHg 81%
    05:00 +9°C° 0 mm 0 mps 632 mmHg 80%
    06:00 +9°C° 0 mm 0 mps 632 mmHg 78%
    07:00 +12°C° 0 mm 1 mps 633 mmHg 69%
    08:00 +15°C° 0 mm 1 mps 634 mmHg 59%
    09:00 +18°C° 0 mm 1 mps 635 mmHg 49%
    10:00 +19°C° 0 mm 1 mps 635 mmHg 46%
    11:00 +20°C° 0 mm 2 mps 635 mmHg 43%
    12:00 +21°C° 0 mm 2 mps 635 mmHg 40%
    13:00 +21°C° 0 mm 2 mps 635 mmHg 43%
    14:00 +21°C° 0 mm 2 mps 634 mmHg 46%
    15:00 +20°C° 0 mm 2 mps 634 mmHg 49%
    16:00 +19°C° 0 mm 2 mps 633 mmHg 56%
    17:00 +18°C° 0 mm 1 mps 633 mmHg 63%
    18:00 +15°C° 0 mm 1 mps 632 mmHg 71%
    19:00 +14°C° 0 mm 1 mps 633 mmHg 70%
    20:00 +14°C° 0 mm 1 mps 633 mmHg 69%
    21:00 +13°C° 0 mm 1 mps 633 mmHg 68%
    22:00 +12°C° 0 mm 0 mps 633 mmHg 67%
    23:00 +11°C° 0 mm 0 mps 633 mmHg 65%

    26 September, Thursday

    Time Temperature Precipitation Wind Pressure Humidity
    00:00 +11°C° 0 mm 0 mps 632 mmHg 63%
    01:00 +11°C° 0 mm 0 mps 632 mmHg 62%
    02:00 +12°C° 0 mm 1 mps 632 mmHg 60%
    03:00 +12°C° 0 mm 1 mps 632 mmHg 59%
    04:00 +12°C° 0 mm 1 mps 633 mmHg 56%
    05:00 +12°C° 0 mm 1 mps 633 mmHg 53%
    06:00 +12°C° 0 mm 1 mps 633 mmHg 51%
    07:00 +14°C° 0 mm 1 mps 634 mmHg 46%
    08:00 +18°C° 0 mm 1 mps 635 mmHg 41%
    09:00 +21°C° 0 mm 1 mps 636 mmHg 36%
    10:00 +22°C° 0 mm 1 mps 636 mmHg 37%
    11:00 +23°C° 0 mm 2 mps 637 mmHg 38%
    12:00 +24°C° 0 mm 2 mps 637 mmHg 39%
    13:00 +24°C° 0 mm 2 mps 636 mmHg 40%
    14:00 +24°C° 0 mm 2 mps 635 mmHg 41%
    15:00 +24°C° 0 mm 2 mps 635 mmHg 42%
    16:00 +20°C° 0 mm 2 mps 634 mmHg 52%
    17:00 +18°C° 0 mm 2 mps 634 mmHg 61%
    18:00 +16°C° 0 mm 1 mps 633 mmHg 71%
    19:00 +15°C° 0 mm 1 mps 633 mmHg 71%
    20:00 +14°C° 0 mm 1 mps 633 mmHg 71%
    21:00 +14°C° 0 mm 1 mps 633 mmHg 71%
    22:00 +14°C° 0 mm 1 mps 633 mmHg 71%
    23:00 +12°C° 0 mm 0 mps 632 mmHg 71%

    27 September, Friday

    Time Temperature Precipitation Wind Pressure Humidity
    00:00 +12°C° 0 mm 0 mps 632 mmHg 71%
    01:00 +12°C° 0 mm 0 mps 632 mmHg 71%
    02:00 +11°C° 0 mm 0 mps 632 mmHg 72%
    03:00 +11°C° 0 mm 0 mps 632 mmHg 72%
    04:00 +11°C° 0 mm 0 mps 632 mmHg 71%
    05:00 +11°C° 0 mm 0 mps 632 mmHg 71%
    06:00 +11°C° 0 mm 0 mps 632 mmHg 70%
    07:00 +15°C° 0 mm 1 mps 633 mmHg 61%
    08:00 +18°C° 0 mm 1 mps 634 mmHg 52%
    09:00 +21°C° 0 mm 1 mps 635 mmHg 44%
    10:00 +21°C° 0 mm 2 mps 635 mmHg 40%
    11:00 +24°C° 0 mm 2 mps 635 mmHg 37%
    12:00 +26°C° 0 mm 2 mps 635 mmHg 33%
    13:00 +26°C° 0 mm 2 mps 634 mmHg 34%
    14:00 +26°C° 0 mm 3 mps 634 mmHg 35%
    15:00 +26°C° 0 mm 3 mps 633 mmHg 35%
    16:00 +24°C° 0 mm 2 mps 633 mmHg 40%
    17:00 +21°C° 0 mm 2 mps 632 mmHg 45%
    18:00 +20°C° 0 mm 1 mps 631 mmHg 50%
    19:00 +19°C° 0 mm 1 mps 631 mmHg 46%
    20:00 +19°C° 0 mm 1 mps 631 mmHg 42%
    21:00 +19°C° 0 mm 1 mps 631 mmHg 38%
    22:00 +18°C° 0 mm 1 mps 631 mmHg 37%
    23:00 +18°C° 0 mm 1 mps 631 mmHg 36%
    Show more